Lid_Strength_Index
-1 -1 -1 2 8 8 11 10 7 8 8 5 5 6 7 6 8 10 1 0 -0 -1 -1 -1 -1 -2 -2 -2 -2 -2 -2 -2 -2 -2 -2 -2 -2 -2 -2 -2 -2 -2 -2 -2 -2 -2 -2 -2 -2
-0 -0 1 4 10 12 10 8 9 7 6 5 5 5 6 7 4 4 3 0 -1 -1 -1 -1 -1 -1 -2 -2 -1 -2 -2 -2 -2 -2 -2 -2 -2 -2 -2 -2 -2 -2 -2 -2 -2 -2 -2 -2 -2
1 1 4 7 9 11 10 8 7 6 5 5 6 5 5 6 4 3 0 -0 -1 -1 -1 -1 -1 -1 -2 -2 -2 -2 -2 -2 -2 -2 -2 -2 -2 -2 -2 -2 -2 -2 -2 -2 -2 -2 -2 -2 -2
2 2 4 8 10 8 8 6 6 7 6 5 5 7 4 2 3 1 -0 -1 -0 -1 -1 -1 -1 -1 -2 -2 -2 -2 -2 -2 -2 -2 -2 -2 -2 -2 -2 -2 -2 -2 -2 -2 -2 -2 -2 -2 -2
1 4 8 9 9 8 7 6 6 7 6 5 5 7 6 3 1 0 0 -0 -0 -1 -1 -1 -1 -1 -1 -2 -2 -2 -2 -2 -2 -2 -2 -3 -2 -2 -2 -2 -2 -2 -2 -2 -2 -2 -2 -2 -2
5 5 10 10 9 7 6 5 6 6 5 5 6 6 6 2 2 1 0 -0 -1 -0 -1 -1 0 -1 -1 -1 -1 -2 -2 -2 -2 -3 -3 -2 -2 -3 -2 -2 -2 -2 -2 -2 -2 -2 -1 -1 -1
6 8 9 9 9 8 7 5 6 6 6 6 4 7 5 4 1 1 0 -0 -1 -1 -1 -1 -1 -1 0 -0 -1 -1 -2 -2 -2 -2 -2 -2 -2 -2 -2 -2 -2 -2 -2 -2 -2 -1 -1 -1 -1
5 7 10 9 9 8 6 5 5 5 6 3 3 6 6 3 1 1 0 0 -0 -0 -1 -1 -1 -1 -1 -2 0 -0 -1 -1 -2 -2 -1 -1 -1 -2 -2 -2 -2 -2 -2 -2 -2 -1 -1 -1 -1
4 9 11 9 9 7 6 6 5 4 5 4 4 4 3 2 1 2 2 1 1 0 -0 -1 -1 -1 -1 -1 -0 1 0 -0 -0 -1 0 0 -2 -2 -1 -1 -1 -2 -2 -2 -2 -1 -2 -2 -1
8 10 9 7 6 7 6 6 5 5 6 6 5 4 3 2 3 3 3 3 2 1 0 -0 -1 -1 -1 -1 -1 -1 -1 -2 -2 -2 -2 -2 -1 -2 -1 0 0 -1 -1 -2 -2 -2 -2 -1 -2
8 10 8 6 6 5 6 6 4 6 7 5 5 5 4 4 3 3 3 2 2 1 1 -0 -1 -1 -1 -1 -1 -1 -1 -1 -1 -2 -2 -2 -2 -2 -2 -2 -1 -1 1 -1 -1 -1 -2 -1 -2
11 9 9 7 6 6 6 5 6 5 5 3 3 3 4 4 4 4 3 3 2 2 1 0 -1 -1 -1 -1 -1 -1 -1 -1 -1 -1 -2 -1 -1 -1 -1 -1 -1 -1 -1 -1 -1 -1 -1 -1 -1
11 9 8 8 7 6 6 6 6 6 4 4 3 4 4 4 4 3 2 2 2 2 1 0 -0 -0 -1 -1 -1 -1 -1 -1 -1 -1 -1 -1 -1 -1 -1 -1 -1 -1 -1 -1 -1 -1 -1 -1 -0
11 10 9 9 8 7 7 7 6 5 4 4 4 4 4 4 3 3 3 2 2 1 1 0 0 -1 -1 -1 -1 -1 -1 -1 -1 -1 -1 -1 -1 -1 -1 -1 -1 -1 -1 -1 -1 -1 -0 -0 -0
11 12 11 9 9 9 7 9 8 5 4 5 5 4 4 4 3 3 2 2 2 1 1 1 1 -1 -0 -0 -1 -1 -1 -1 -1 -1 -1 -1 -1 -1 -1 -1 -1 -1 -1 -1 -1 -0 -0 -0 -0
13 12 13 10 9 9 8 11 8 5 5 5 5 4 4 4 3 2 2 2 1 1 1 0 -0 -0 -0 -0 -1 -1 -1 -1 -1 -1 -1 -1 -1 -1 -1 -1 -1 -1 -1 -1 -1 -0 -0 -0 -0
14 16 13 12 10 10 9 11 9 8 6 6 5 5 5 4 3 2 2 1 1 1 1 1 0 0 -0 -0 -1 -1 -1 -1 -1 -1 -1 -1 -1 -1 -1 -1 -1 -1 -0 0 0 1 1 1 1
16 15 12 13 12 11 11 11 9 9 8 6 5 5 5 5 4 2 2 1 1 1 1 1 0 0 -0 -0 -0 -0 -0 -1 -1 -1 -1 -1 -1 -1 -1 -1 -1 -0 0 0 1 1 1 1 1
14 14 13 13 13 12 12 11 10 9 9 8 7 5 5 5 3 2 2 1 1 1 1 1 1 0 0 1 1 1 1 0 -0 -1 -1 -1 -1 -1 -1 -1 -1 -1 -0 0 0 1 1 1 1
14 15 15 15 13 13 13 12 10 9 9 8 8 7 6 4 4 4 2 2 2 2 1 1 1 1 0 0 0 0 0 0 -0 -1 -1 -1 -1 -1 -1 -1 -0 -0 -0 0 0 0 1 1 1
14 15 16 15 14 14 15 14 13 11 11 10 8 7 7 6 5 5 4 4 2 2 2 1 1 1 0 0 0 0 0 0 1 0 0 -0 -1 -1 -1 -1 -1 -0 -0 0 0 0 1 2 1
15 12 13 14 15 18 15 17 13 13 12 12 10 9 8 7 6 6 5 5 5 4 3 1 1 1 0 0 1 1 2 2 1 1 0 -0 -1 -1 -1 -1 -1 -0 -0 0 0 -0 0 1 2
13 10 12 12 14 15 16 18 15 14 14 13 12 10 9 7 6 5 4 4 4 4 5 5 3 1 1 0 1 1 2 1 1 1 1 0 -0 -1 -1 -1 -1 -0 -0 -0 -0 0 0 0 1
9 10 11 12 14 18 16 17 17 15 14 13 12 11 11 10 8 8 7 6 6 5 5 4 4 3 1 1 1 1 2 1 2 1 1 1 0 -0 -0 -0 -0 -0 -0 0 -0 -0 0 0 1
10 12 16 18 18 19 15 17 16 14 13 13 12 11 11 11 11 10 10 10 9 7 6 5 5 5 3 1 1 1 1 1 1 1 1 1 1 1 0 0 0 1 0 1 -0 -0 0 0 1
12 13 15 20 19 19 16 19 17 13 12 12 12 11 11 10 10 10 10 9 9 9 8 7 6 6 4 2 1 1 1 1 1 1 1 1 1 1 1 1 1 0 -0 0 1 1 3 3 3
12 14 12 15 17 16 16 15 13 12 12 12 12 11 11 11 10 10 10 9 8 7 7 6 6 5 5 4 2 1 2 2 2 2 3 3 3 3 3 2 1 0 2 3 4 6 7 5 5
9 9 16 14 19 19 17 17 16 14 13 12 11 11 11 9 9 9 9 9 8 8 8 7 7 7 7 7 6 6 6 5 5 5 5 4 3 2 1 1 1 2 4 5 6 7 8 7 7
11 12 12 13 14 18 19 17 12 12 11 11 11 10 9 9 9 9 8 9 9 8 8 8 8 8 8 9 9 8 8 8 7 6 5 4 4 3 3 3 4 5 6 6 7 8 9 8 9
8 10 11 15 17 15 16 15 11 11 11 9 10 10 9 9 8 8 8 8 8 8 9 9 9 9 8 9 8 9 9 8 7 7 6 6 5 5 5 6 7 8 8 8 7 7 8 8 10